HISPASAT 30W-5

Last updated on Thu Nov 21 2024 00:02:41 GMT+0000 (Coordinated Universal Time)

1 37264U 10070A 24324.36019562 -.00000214 00000+0 00000+0 0 9993 2 37264 0.0669 108.1132 0003924 111.3751 299.0784 1.00271673 47421
UTC large
Height (km)
Speed (km/s)
/
Latitude / Longitude
Inclination (degrees)
Orbital Period (minutes)
Azimuth
Elevation
Range (km)
Doppler Factor

Next 0 passes for location: London (51.5072 / 0.1276)

Sorry there are no passes over London.